EW1298 Weather Reports


time (UTC)temp
F
wind
direction
speed
knots
gust
knots
rain 1hr
in
rain 24hr
in
rain mn
in
humidity
%
barometer
mb
20190221111548 24 259 2.6 7.8 0.00 0.00 0.00 85 1007.1
20190221110034 24 216 1.7 5.2 0.00 0.00 0.00 87 1007.1
20190221104518 23 225 1.7 7.8 0.00 0.00 0.00 86 1006.8
20190221103028 23 233 1.7 5.2 0.00 0.00 0.00 86 1006.4
20190221101506 23 224 2.6 7.0 0.00 0.00 0.00 87 1006.0
20190221100005 22 232 2.6 7.0 0.00 0.00 0.00 87 1005.7
20190221093125 22 280 1.7 8.7 0.00 0.00 0.00 87 1005.1
20190221091624 21 263 1.7 6.1 0.00 0.00 0.00 88 1005.0
20190221090253 21 250 0.9 3.5 0.00 0.00 0.00 88 1004.9
20190221084636 21 292 0.0 3.5 0.00 0.00 0.00 87 1004.9
20190221083134 21 297 0.0 5.2 0.00 0.00 0.00 87 1004.2
20190221081744 21 302 0.0 2.6 0.00 0.00 0.00 87 1004.2
20190221080104 21 287 0.9 3.5 0.00 0.00 0.00 88 1004.2
20190221074627 21 266 0.9 5.2 0.00 0.00 0.00 89 1004.1
20190221073101 20 311 1.7 3.5 0.00 0.00 0.00 90 1003.8
20190221071655 18 238 0.0 1.7 0.00 0.00 0.00 89 1003.4
20190221070100 19 221 0.0 1.7 0.00 0.00 0.00 89 1003.2
20190221064619 19 222 0.9 2.6 0.00 0.00 0.00 89 1003.1
20190221063051 19 271 0.0 2.6 0.00 0.00 0.00 89 1002.8
20190221061635 20 297 0.0 0.9 0.00 0.00 0.00 89 1002.7
20190221060108 20 296 0.0 0.9 0.00 0.00 0.00 90 1002.6
20190221054550 21 296 0.0 0.9 0.00 0.00 0.00 90 1002.6
20190221053035 21 296 0.0 1.7 0.00 0.00 0.00 90 1002.3
20190221051535 21 296 0.0 1.7 0.00 0.00 0.00 90 1002.2
20190221050037 22 296 0.0 1.7 0.00 0.00 0.00 90 1002.1
20190221044530 22 277 0.9 2.6 0.00 0.00 0.00 90 1002.1
20190221043030 22 292 0.9 2.6 0.00 0.00 0.00 91 1002.2
20190221041528 22 290 0.9 2.6 0.00 0.00 0.00 91 1002.1
20190221040037 22 240 0.9 1.7 0.00 0.00 0.00 91 1002.1
20190221034617 22 207 0.0 0.0 0.00 0.00 0.00 91 1002.0
20190221033052 22 207 0.0 0.0 0.00 0.00 0.00 91 1002.0
20190221031535 22 114 0.0 0.0 0.00 0.00 0.00 91 1002.1
20190221030022 22 114 0.0 0.0 0.00 0.00 0.00 91 1002.2
20190221024525 22 114 0.0 0.0 0.00 0.00 0.00 91 1002.3
20190221023045 22 114 0.0 0.0 0.00 0.00 0.00 91 1002.4
20190221021513 22 115 0.0 0.9 0.00 0.00 0.00 91 1002.5
20190221020016 22 114 0.0 0.9 0.00 0.00 0.00 91 1002.7
20190221014509 22 114 0.0 0.0 0.00 0.00 0.00 91 1003.0
20190221013009 22 114 0.0 0.9 0.00 0.00 0.00 91 1003.3
20190221011506 22 116 0.0 0.0 0.00 0.00 0.00 91 1003.6
20190221010208 22 116 0.0 0.9 0.00 0.00 0.00 91 1003.9
20190221004704 22 116 0.9 2.6 0.00 0.00 0.00 91 1004.0
20190221003156 22 130 0.0 2.6 0.00 0.00 0.00 91 1004.3
20190221001649 22 130 0.0 1.7 0.00 0.00 0.00 91 1004.6
20190221000214 22 130 0.0 0.0 0.00 0.00 0.00 91 1004.7
20190220234632 22 130 0.0 1.7 0.00 0.00 0.00 91 1005.1
20190220233139 22 139 0.9 3.5 0.00 0.00 0.00 91 1005.4
20190220231714 22 150 1.7 6.1 0.00 0.00 0.00 91 1005.7
20190220230113 22 103 4.3 7.0 0.00 0.00 0.00 90 1005.9
20190220224607 23 103 3.5 7.8 0.00 0.00 0.00 90 1006.1
20190220223130 23 62 2.6 7.8 0.00 0.00 0.00 90 1006.5
20190220221613 23 77 3.5 10.4 0.00 0.00 0.00 90 1006.7
20190220220118 23 55 4.3 10.4 0.00 0.00 0.00 90 1007.4
20190220214611 23 55 7.8 11.3 0.00 0.00 0.00 90 1007.8
20190220213044 23 99 4.3 11.3 0.00 0.00 0.00 89 1008.6
20190220211544 24 59 5.2 8.7 0.00 0.00 0.00 89 1009.1
20190220210107 24 80 3.5 8.7 0.00 0.00 0.00 88 1009.3
20190220204616 24 72 1.7 7.8 0.00 0.00 0.00 88 1009.6
20190220203032 25 121 2.6 8.7 0.00 0.00 0.00 88 1010.1
20190220201530 25 100 1.7 7.8 0.00 0.00 0.00 88 1010.4
20190220200049 25 65 2.6 6.1 0.00 0.00 0.00 88 1010.9
20190220194525 25 85 1.7 8.7 0.00 0.00 0.00 87 1011.4
20190220193034 25 67 2.6 6.1 0.00 0.00 0.00 88 1012.1
20190220191514 25 67 3.5 6.1 0.00 0.00 0.00 87 1012.5
20190220190011 25 73 1.7 6.1 0.00 0.00 0.00 85 1013.2
20190220184702 25 85 1.7 4.3 0.00 0.00 0.00 84 1013.8
20190220183158 25 67 1.7 4.3 0.00 0.00 0.00 84 1014.4
20190220181809 24 63 0.9 2.6 0.00 0.00 0.00 83 1014.9
20190220180139 24 92 0.9 2.6 0.00 0.00 0.00 84 1015.6
20190220174622 23 110 1.7 4.3 0.00 0.00 0.00 84 1016.2
20190220173212 23 117 0.9 2.6 0.00 0.00 0.00 83 1016.7
20190220171623 23 114 1.7 3.5 0.00 0.00 0.00 80 1017.2
20190220170209 23 156 0.9 2.6 0.00 0.00 0.00 78 1017.5
20190220164604 22 121 0.9 1.7 0.00 0.00 0.00 76 1017.5
20190220163117 22 126 0.9 2.6 0.00 0.00 0.00 76 1017.8
20190220161553 21 117 0.9 2.6 0.00 0.00 0.00 75 1018.5
20190220160131 21 142 1.7 6.1 0.00 0.00 0.00 74 1018.8
20190220154544 19 124 2.6 5.2 0.00 0.00 0.00 75 1019.0
20190220153026 18 125 1.7 6.1 0.00 0.00 0.00 77 1019.5
20190220151536 16 110 1.7 5.2 0.00 0.00 0.00 80 1020.0
20190220150019 16 112 0.9 4.3 0.00 0.00 0.00 80 1020.7
20190220144547 15 98 2.6 7.0 0.00 0.00 0.00 80 1021.2
20190220143030 15 115 2.6 7.0 0.00 0.00 0.00 79 1021.4
20190220141506 16 139 0.9 4.3 0.00 0.00 0.00 79 1021.9
20190220140005 16 123 2.6 4.3 0.00 0.00 0.00 79 1022.3
20190220134504 15 133 1.7 3.5 0.00 0.00 0.00 79 1022.3
20190220133009 15 202 0.0 2.6 0.00 0.00 0.00 80 1022.1
20190220131502 14 183 0.0 1.7 0.00 0.00 0.00 80 1022.1
20190220130001 14 167 0.9 2.6 0.00 0.00 0.00 79 1022.1
20190220124501 14 130 0.9 2.6 0.00 0.00 0.00 78 1022.1
20190220123210 15 129 0.9 2.6 0.00 0.00 0.00 77 1022.4
20190220121651 15 155 1.7 4.3 0.00 0.00 0.00 75 1022.4
20190220120151 15 198 0.0 2.6 0.00 0.00 0.00 75 1022.9
20190220114719 15 214 0.9 5.2 0.00 0.00 0.00 75 1023.0
20190220113132 14 261 1.7 6.1 0.00 0.00 0.00 76 1023.2